This is the latest recevied weather packets stored in our database for station/object K6LOT-13. If no packets are shown the sender has not sent any weather packets the latest 10 day(s).
| Time | Temp. | Humidity | Pressure | Rain* | Wind** | Luminosity | Snow |
|---|---|---|---|---|---|---|---|
| 1777841513 | 18.33° C | 62% | 1015.2 hPa | 0 mm | - | - | - |
| 1777840870 | 18.33° C | 62% | 1015.2 hPa | 0 mm | - | - | - |
| 1777840560 | 18.33° C | 62% | 1015.2 hPa | 0 mm | - | - | - |
| 1777840250 | 18.33° C | 62% | 1015.3 hPa | 0 mm | - | - | - |
| 1777839972 | 18.33° C | 63% | 1015.3 hPa | 0 mm | - | - | - |
| 1777839653 | 18.33° C | 63% | 1015.3 hPa | 0 mm | - | - | - |
| 1777839317 | 18.33° C | 63% | 1015.3 hPa | 0 mm | - | - | - |
| 1777838736 | 18.33° C | 64% | 1015.4 hPa | 0 mm | - | - | - |
| 1777837167 | 18.89° C | 65% | 1015.5 hPa | 0 mm | - | - | - |
| 1777836861 | 18.89° C | 65% | 1015.6 hPa | 0 mm | - | - | - |
| 1777836555 | 18.89° C | 65% | 1015.6 hPa | 0 mm | - | - | - |
| 1777835348 | 18.89° C | 67% | 1015.7 hPa | 0 mm | - | - | - |
| 1777835008 | 18.89° C | 67% | 1015.7 hPa | 0 mm | - | - | - |
| 1777833161 | 17.78° C | 70% | 1015.9 hPa | 0 mm | - | - | - |
| 1777831962 | 17.22° C | 72% | 1016.1 hPa | 0 mm | - | - | - |
| 1777831006 | 16.67° C | 73% | 1016.4 hPa | 0 mm | - | - | - |
| 1777829157 | 16.11° C | 74% | 1016.2 hPa | 0 mm | - | - | - |
| 1777828851 | 16.11° C | 75% | 1016.1 hPa | 0 mm | - | - | - |
| 1777826696 | 16.11° C | 79% | 1015.8 hPa | 0 mm | - | - | - |
| 1777824234 | 16.11° C | 79% | 1015.6 hPa | 0 mm | - | - | - |
| 1777823928 | 16.11° C | 79% | 1015.6 hPa | 0 mm | - | - | - |
| 1777821466 | 16.67° C | 77% | 1015.4 hPa | 0 mm | - | - | - |
| 1777821160 | 16.67° C | 76% | 1015.3 hPa | 0 mm | - | - | - |
| 1777820854 | 16.67° C | 76% | 1015.3 hPa | 0 mm | - | - | - |
| 1777820547 | 16.67° C | 76% | 1015.3 hPa | 0 mm | - | - | - |
* Rain latest hour (hover to see other rain measurements)
** Current wind speed in m/s (hover to see current wind gust speed)